RADUGA 17 [-]

Last updated on Nov. 11, 2019, 4:17 a.m. UTC

1 16250U 85107A   19314.81991378 -.00000145  00000-0  00000-0 0  9990
2 16250  13.4773 337.9622 0008788 166.8703 185.2497  1.00182955127529
UTC
Height (km)
Latitude
Longitude
Inclination
Orbital Period
UTC large
Height (km)
Speed (km/s)
/
Latitude / Longitude
Inclination (degrees)
Orbital Period (minutes)
Azimuth
Elevation
Range (km)
Doppler Factor
iOS Compass Heading
iOS Angle

Next 30 passes for location: Hong Kong

Rise time Rise Azimuth (degrees) Set time Set Azimuth (degrees) Duration Max altitude (degrees)

No matching passes for this satellites